Year,Month,Day,Hour,Minute,Value (Times are PST for temperature in C)
2012,06,23,12,31,14.00
2012,06,23,12,32,14.00
2012,06,23,12,38,14.70
2012,06,23,12,39,14.80
2012,06,23,12,40,14.80
2012,06,23,12,41,14.80
2012,06,23,12,42,14.70
2012,06,23,12,43,14.70
2012,06,23,12,44,14.70
2012,06,23,12,45,14.70
2012,06,23,12,46,14.70
2012,06,23,12,47,14.70
2012,06,23,12,48,14.70
2012,06,23,12,49,14.70
2012,06,23,12,50,14.80
2012,06,23,12,51,14.80
2012,06,23,12,52,14.80
2012,06,23,12,53,14.80
2012,06,23,12,54,14.90
2012,06,23,12,55,15.00
2012,06,23,12,56,15.00
2012,06,23,12,57,15.00
2012,06,23,12,58,15.00
2012,06,23,12,59,15.00
2012,06,23,13,00,15.00
2012,06,23,13,01,15.00
2012,06,23,13,02,15.00
2012,06,23,13,03,15.00
2012,06,23,13,04,15.00
2012,06,23,13,05,15.00
2012,06,23,13,06,15.10
2012,06,23,13,07,15.10
2012,06,23,13,08,15.00
2012,06,23,13,09,15.00
2012,06,23,13,10,15.00
2012,06,23,13,11,14.90
2012,06,23,13,12,14.90
2012,06,23,13,13,14.80
2012,06,23,13,14,14.80
2012,06,23,13,15,14.70
2012,06,23,13,16,14.60
2012,06,23,13,17,14.60
2012,06,23,13,18,14.60
2012,06,23,13,19,14.60
2012,06,23,13,20,14.50
2012,06,23,13,21,14.50
2012,06,23,13,22,14.50
2012,06,23,13,23,14.40
2012,06,23,13,24,14.40
2012,06,23,13,25,14.40
2012,06,23,13,26,14.40
2012,06,23,13,27,14.50
2012,06,23,13,28,14.40
2012,06,23,13,29,14.50
2012,06,23,13,30,14.50
2012,06,23,13,31,14.40
2012,06,23,13,32,14.40
2012,06,23,13,33,14.40
2012,06,23,13,34,14.40
2012,06,23,13,35,14.50
2012,06,23,13,36,14.60
2012,06,23,13,37,14.60
2012,06,23,13,38,14.60
2012,06,23,13,39,14.70
2012,06,23,13,40,14.70
2012,06,23,13,41,14.70
2012,06,23,13,42,14.70
2012,06,23,13,43,14.70
2012,06,23,13,44,14.80
2012,06,23,13,45,14.90
2012,06,23,13,46,15.00
2012,06,23,13,47,15.00
2012,06,23,13,48,15.00
2012,06,23,13,49,14.90
2012,06,23,13,50,14.90
2012,06,23,13,51,14.90
2012,06,23,13,52,14.90
2012,06,23,13,53,14.90
2012,06,23,13,54,15.00
2012,06,23,13,55,15.00
2012,06,23,13,56,15.00
2012,06,23,13,57,15.10
2012,06,23,13,58,15.20
2012,06,23,13,59,15.50
2012,06,23,14,00,15.70
2012,06,23,14,01,15.80
2012,06,23,14,02,15.80
2012,06,23,14,03,15.90
2012,06,23,14,04,16.00
2012,06,23,14,05,16.20
2012,06,23,14,06,16.30
2012,06,23,14,07,16.30
2012,06,23,14,08,16.30
2012,06,23,14,09,16.30
2012,06,23,14,10,16.30
2012,06,23,14,11,16.40
2012,06,23,14,12,16.40
2012,06,23,14,13,16.50
2012,06,23,14,14,16.60
2012,06,23,14,15,16.60
2012,06,23,14,16,16.70
2012,06,23,14,17,16.80
2012,06,23,14,18,16.80
2012,06,23,14,19,17.00
2012,06,23,14,20,17.10
2012,06,23,14,21,17.20
2012,06,23,14,22,17.20
2012,06,23,14,23,17.10
2012,06,23,14,24,16.90
2012,06,23,14,25,16.90
2012,06,23,14,26,16.90
2012,06,23,14,27,16.90
2012,06,23,14,28,16.90
2012,06,23,14,29,16.80
2012,06,23,14,30,16.80
2012,06,23,14,31,16.80
2012,06,23,14,32,16.90
2012,06,23,14,33,16.90
2012,06,23,14,34,16.90
2012,06,23,14,35,16.90
2012,06,23,14,36,16.90
2012,06,23,14,37,16.90
2012,06,23,14,38,16.80
2012,06,23,14,39,16.70
2012,06,23,14,40,16.70
2012,06,23,14,41,16.70
2012,06,23,14,42,16.70
2012,06,23,14,43,16.60
2012,06,23,14,44,16.50
2012,06,23,14,45,16.40
2012,06,23,14,46,16.30
2012,06,23,14,47,16.30
2012,06,23,14,48,16.30
2012,06,23,14,49,16.30
2012,06,23,14,50,16.30
2012,06,23,14,51,16.30
2012,06,23,14,52,16.40
2012,06,23,14,53,16.40
2012,06,23,14,54,16.40
2012,06,23,14,55,16.40
2012,06,23,14,56,16.40
2012,06,23,14,57,16.40
2012,06,23,14,58,16.40
2012,06,23,14,59,16.40
2012,06,23,15,00,16.30
2012,06,23,15,01,16.30
2012,06,23,15,02,16.30
2012,06,23,15,03,16.20
2012,06,23,15,04,16.20
2012,06,23,15,05,16.20
2012,06,23,15,06,16.30
2012,06,23,15,07,16.30
2012,06,23,15,08,16.30
2012,06,23,15,09,16.30
2012,06,23,15,10,16.40
2012,06,23,15,11,16.50
2012,06,23,15,12,16.50
2012,06,23,15,13,16.60
2012,06,23,15,14,16.60
2012,06,23,15,15,16.60
2012,06,23,15,16,16.50
2012,06,23,15,17,16.40
2012,06,23,15,18,16.40
2012,06,23,15,19,16.40
2012,06,23,15,20,16.30
2012,06,23,15,21,16.30
2012,06,23,15,22,16.30
2012,06,23,15,23,16.30
2012,06,23,15,24,16.20
2012,06,23,15,25,16.10
2012,06,23,15,26,16.00
2012,06,23,15,27,15.90
2012,06,23,15,28,15.90
2012,06,23,15,29,15.80
2012,06,23,15,30,15.80
2012,06,23,15,31,15.80
2012,06,23,15,32,15.90
2012,06,23,15,33,15.90
2012,06,23,15,34,16.00
2012,06,23,15,35,16.10
2012,06,23,15,36,16.10
2012,06,23,15,37,16.00
2012,06,23,15,38,15.90
2012,06,23,15,39,15.90
2012,06,23,15,40,15.90
2012,06,23,15,41,15.90
2012,06,23,15,42,15.80
2012,06,23,15,43,15.80
2012,06,23,15,44,15.80
2012,06,23,15,45,15.80
2012,06,23,15,46,15.70
2012,06,23,15,47,15.70
2012,06,23,15,48,15.70
2012,06,23,15,49,15.60
2012,06,23,15,50,15.50
2012,06,23,15,51,15.30
2012,06,23,15,52,15.30
2012,06,23,15,53,15.30
2012,06,23,15,54,15.20
2012,06,23,15,55,15.10
2012,06,23,15,56,15.00
2012,06,23,15,57,15.00
2012,06,23,15,58,15.00
2012,06,23,15,59,15.00
2012,06,23,16,00,14.90
2012,06,23,16,01,14.80
2012,06,23,16,02,14.80
2012,06,23,16,03,14.70
2012,06,23,16,04,14.60
2012,06,23,16,05,14.60
2012,06,23,16,06,14.50
2012,06,23,16,07,14.40
2012,06,23,16,08,14.40
2012,06,23,16,09,14.30
2012,06,23,16,10,14.30
2012,06,23,16,11,14.20
2012,06,23,16,12,14.10
2012,06,23,16,13,13.90
2012,06,23,16,14,13.80
2012,06,23,16,15,13.60
2012,06,23,16,16,13.50
2012,06,23,16,17,13.40
2012,06,23,16,18,13.30
2012,06,23,16,19,13.20
2012,06,23,16,20,13.10
2012,06,23,16,21,13.10
2012,06,23,16,22,13.00
2012,06,23,16,23,13.00
2012,06,23,16,24,12.90
2012,06,23,16,25,12.90
2012,06,23,16,26,12.80
2012,06,23,16,27,12.80
2012,06,23,16,28,12.80
2012,06,23,16,29,12.80
2012,06,23,16,30,12.80
2012,06,23,16,31,12.80
2012,06,23,16,32,12.70
2012,06,23,16,33,12.70
2012,06,23,16,34,12.70
2012,06,23,16,35,12.70
2012,06,23,16,36,12.70
2012,06,23,16,37,12.70
2012,06,23,16,38,12.70
2012,06,23,16,39,12.70
2012,06,23,16,40,12.70
2012,06,23,16,41,12.70
2012,06,23,16,42,12.70
2012,06,23,16,43,12.70
2012,06,23,16,44,12.60
2012,06,23,16,45,12.60
2012,06,23,16,46,12.60
2012,06,23,16,47,12.60
2012,06,23,16,48,12.50
2012,06,23,16,49,12.50
2012,06,23,16,50,12.50
2012,06,23,16,51,12.50
2012,06,23,16,52,12.50
2012,06,23,16,53,12.50
2012,06,23,16,54,12.50
2012,06,23,16,55,12.50
2012,06,23,16,56,12.40
2012,06,23,16,57,12.40
2012,06,23,16,58,12.30
2012,06,23,16,59,12.30
2012,06,23,17,00,12.30
2012,06,23,17,01,12.30
2012,06,23,17,02,12.30
2012,06,23,17,03,12.30
2012,06,23,17,04,12.30
2012,06,23,17,05,12.30
2012,06,23,17,06,12.30
2012,06,23,17,07,12.40
2012,06,23,17,08,12.40
2012,06,23,17,09,12.40
2012,06,23,17,10,12.40
2012,06,23,17,11,12.40
2012,06,23,17,12,12.40
2012,06,23,17,13,12.40
2012,06,23,17,14,12.40
2012,06,23,17,15,12.40
2012,06,23,17,16,12.40
2012,06,23,17,17,12.40
2012,06,23,17,18,12.40
2012,06,23,17,19,12.40
2012,06,23,17,20,12.40
2012,06,23,17,21,12.40
2012,06,23,17,22,12.40
2012,06,23,17,23,12.40
2012,06,23,17,24,12.40
2012,06,23,17,25,12.40
2012,06,23,17,26,12.50
2012,06,23,17,27,12.50
2012,06,23,17,28,12.50
2012,06,23,17,29,12.50
2012,06,23,17,30,12.50
2012,06,23,17,31,12.50
2012,06,23,17,32,12.40
2012,06,23,17,33,12.40
2012,06,23,17,34,12.40
2012,06,23,17,35,12.40
2012,06,23,17,36,12.40
2012,06,23,17,37,12.40
2012,06,23,17,38,12.40
2012,06,23,17,39,12.40
2012,06,23,17,40,12.40
2012,06,23,17,41,12.40
2012,06,23,17,42,12.40
2012,06,23,17,43,12.30
2012,06,23,17,44,12.30
2012,06,23,17,45,12.30
2012,06,23,17,46,12.30
2012,06,23,17,47,12.30
2012,06,23,17,48,12.30
2012,06,23,17,49,12.30
2012,06,23,17,50,12.30
2012,06,23,17,51,12.30
2012,06,23,17,52,12.30
2012,06,23,17,53,12.30
2012,06,23,17,54,12.40
2012,06,23,17,55,12.40
2012,06,23,17,56,12.40
2012,06,23,17,57,12.40
2012,06,23,17,58,12.40
2012,06,23,17,59,12.50
2012,06,23,18,00,12.50
2012,06,23,18,01,12.50
2012,06,23,18,02,12.50
2012,06,23,18,03,12.50
2012,06,23,18,04,12.50
2012,06,23,18,05,12.50
2012,06,23,18,06,12.50
2012,06,23,18,07,12.50
2012,06,23,18,08,12.50
2012,06,23,18,09,12.50
2012,06,23,18,10,12.50
2012,06,23,18,11,12.50
2012,06,23,18,12,12.50
2012,06,23,18,13,12.50
2012,06,23,18,14,12.50
2012,06,23,18,15,12.50
2012,06,23,18,16,12.60
2012,06,23,18,17,12.60
2012,06,23,18,18,12.60
2012,06,23,18,19,12.60
2012,06,23,18,20,12.60
2012,06,23,18,21,12.60
2012,06,23,18,22,12.70
2012,06,23,18,23,12.70
2012,06,23,18,24,12.70
2012,06,23,18,25,12.70
2012,06,23,18,26,12.70
2012,06,23,18,27,12.70
2012,06,23,18,28,12.70
2012,06,23,18,29,12.70
2012,06,23,18,30,12.70
2012,06,23,18,31,12.70
2012,06,23,18,32,12.70
2012,06,23,18,33,12.70
2012,06,23,18,34,12.80
2012,06,23,18,35,12.80
2012,06,23,18,36,12.80
2012,06,23,18,37,12.80
2012,06,23,18,38,12.80
2012,06,23,18,39,12.80
2012,06,23,18,40,12.80
2012,06,23,18,41,12.80
2012,06,23,18,42,12.80
2012,06,23,18,43,12.80
2012,06,23,18,44,12.80
2012,06,23,18,45,12.90
2012,06,23,18,46,12.90
2012,06,23,18,47,12.90
2012,06,23,18,48,12.90
2012,06,23,18,49,12.90
2012,06,23,18,50,12.90
2012,06,23,18,51,12.90
2012,06,23,18,52,12.90
2012,06,23,18,53,13.00
2012,06,23,18,54,13.00
2012,06,23,18,55,13.00
2012,06,23,18,56,13.00
2012,06,23,18,57,12.90
2012,06,23,18,58,12.90
2012,06,23,18,59,12.90
2012,06,23,19,00,12.90
2012,06,23,19,01,12.90
2012,06,23,19,02,12.90
2012,06,23,19,03,12.90
2012,06,23,19,04,12.90
2012,06,23,19,05,12.90
2012,06,23,19,06,12.90
2012,06,23,19,07,12.90
2012,06,23,19,08,12.90
2012,06,23,19,09,12.90
2012,06,23,19,10,12.90
2012,06,23,19,11,12.90
2012,06,23,19,12,12.90
2012,06,23,19,13,12.90
2012,06,23,19,14,12.90
2012,06,23,19,15,12.90
2012,06,23,19,16,12.90
2012,06,23,19,17,12.90
2012,06,23,19,18,12.90
2012,06,23,19,19,12.90
2012,06,23,19,20,12.90
2012,06,23,19,21,12.90
2012,06,23,19,22,12.90
2012,06,23,19,23,12.90
2012,06,23,19,24,12.90
2012,06,23,19,25,12.90
2012,06,23,19,26,12.90
2012,06,23,19,27,13.00
2012,06,23,19,28,13.00
2012,06,23,19,29,13.00
2012,06,23,19,30,13.00
2012,06,23,19,31,13.00
2012,06,23,19,32,13.00
2012,06,23,19,33,13.00
2012,06,23,19,34,13.00
2012,06,23,19,35,13.00
2012,06,23,19,36,13.00
2012,06,23,19,37,13.00
2012,06,23,19,38,13.00
2012,06,23,19,39,13.00
2012,06,23,19,40,13.00
2012,06,23,19,41,13.00
2012,06,23,19,42,13.00
2012,06,23,19,43,13.10
2012,06,23,19,44,13.00
2012,06,23,19,45,13.10
2012,06,23,19,46,13.10
2012,06,23,19,47,13.10
2012,06,23,19,48,13.10
2012,06,23,19,49,13.10
2012,06,23,19,50,13.10
2012,06,23,19,51,13.10
2012,06,23,19,52,13.10
2012,06,23,19,53,13.10
2012,06,23,19,54,13.10
2012,06,23,19,55,13.10
2012,06,23,19,56,13.20
2012,06,23,19,57,13.20
2012,06,23,19,58,13.20
2012,06,23,19,59,13.20
2012,06,23,20,00,13.20
2012,06,23,20,01,13.20
2012,06,23,20,02,13.20
2012,06,23,20,03,13.20
2012,06,23,20,04,13.20
2012,06,23,20,05,13.20
2012,06,23,20,06,13.20
2012,06,23,20,07,13.20
2012,06,23,20,08,13.10
2012,06,23,20,09,13.10
2012,06,23,20,10,13.10
2012,06,23,20,11,13.10
2012,06,23,20,12,13.10
2012,06,23,20,13,13.10
2012,06,23,20,14,13.10
2012,06,23,20,15,13.10
2012,06,23,20,16,13.20
2012,06,23,20,17,13.20
2012,06,23,20,18,13.20
2012,06,23,20,19,13.30
2012,06,23,20,20,13.30
2012,06,23,20,21,13.30
2012,06,23,20,22,13.30
2012,06,23,20,23,13.30
2012,06,23,20,24,13.30
2012,06,23,20,25,13.30
2012,06,23,20,26,13.30
2012,06,23,20,27,13.30
2012,06,23,20,28,13.30
2012,06,23,20,29,13.30
2012,06,23,20,30,13.20
2012,06,23,20,31,13.20
2012,06,23,20,32,13.20
2012,06,23,20,33,13.20
2012,06,23,20,34,13.10
2012,06,23,20,35,13.10
2012,06,23,20,36,13.10
2012,06,23,20,37,13.10
2012,06,23,20,38,13.00
2012,06,23,20,39,13.00
2012,06,23,20,40,13.00
2012,06,23,20,41,12.90
2012,06,23,20,42,12.90
2012,06,23,20,43,12.90
2012,06,23,20,44,12.90
2012,06,23,20,45,12.80
2012,06,23,20,46,12.80
2012,06,23,20,47,12.80
2012,06,23,20,48,12.80
2012,06,23,20,49,12.80
2012,06,23,20,50,12.70
2012,06,23,20,51,12.70
2012,06,23,20,52,12.70
2012,06,23,20,53,12.70
2012,06,23,20,54,12.60
2012,06,23,20,55,12.60
2012,06,23,20,56,12.60
2012,06,23,20,57,12.60
2012,06,23,20,58,12.50
2012,06,23,20,59,12.50
2012,06,23,21,00,12.50
2012,06,23,21,01,12.50
2012,06,23,21,02,12.40
2012,06,23,21,03,12.40
2012,06,23,21,04,12.40
2012,06,23,21,05,12.30
2012,06,23,21,06,12.30
2012,06,23,21,07,12.30
2012,06,23,21,08,12.30
2012,06,23,21,09,12.20
2012,06,23,21,10,12.20
2012,06,23,21,11,12.20
2012,06,23,21,12,12.10
2012,06,23,21,13,12.10
2012,06,23,21,14,12.10
2012,06,23,21,15,12.00
2012,06,23,21,16,12.00
2012,06,23,21,17,11.90
2012,06,23,21,18,11.90
2012,06,23,21,19,11.90
2012,06,23,21,20,11.90
2012,06,23,21,21,11.90
2012,06,23,21,22,11.80
2012,06,23,21,23,11.80
2012,06,23,21,24,11.80
2012,06,23,21,25,11.80
2012,06,23,21,26,11.70
2012,06,23,21,27,11.70
2012,06,23,21,28,11.70
2012,06,23,21,29,11.60
2012,06,23,21,30,11.60
2012,06,23,21,31,11.60
2012,06,23,21,32,11.60
2012,06,23,21,33,11.60
2012,06,23,21,34,11.50
2012,06,23,21,35,11.50
2012,06,23,21,36,11.50
2012,06,23,21,37,11.40
2012,06,23,21,38,11.40
2012,06,23,21,39,11.40
2012,06,23,21,40,11.30
2012,06,23,21,41,11.30
2012,06,23,21,42,11.30
2012,06,23,21,43,11.30
2012,06,23,21,44,11.30
2012,06,23,21,45,11.30
2012,06,23,21,46,11.20
2012,06,23,21,47,11.20
2012,06,23,21,48,11.20
2012,06,23,21,49,11.20
2012,06,23,21,50,11.20
2012,06,23,21,51,11.10
2012,06,23,21,52,11.10
2012,06,23,21,53,11.10
2012,06,23,21,54,11.10
2012,06,23,21,55,11.10
2012,06,23,21,56,11.10
2012,06,23,21,57,11.00
2012,06,23,21,58,11.00
2012,06,23,21,59,11.00
2012,06,23,22,00,11.00
2012,06,23,22,01,10.90
2012,06,23,22,02,10.90
2012,06,23,22,03,10.90
2012,06,23,22,04,10.90
2012,06,23,22,05,10.90
2012,06,23,22,06,10.80
2012,06,23,22,07,10.80
2012,06,23,22,08,10.80
2012,06,23,22,09,10.80
2012,06,23,22,10,10.80
2012,06,23,22,11,10.80
2012,06,23,22,12,10.80
2012,06,23,22,13,10.80
2012,06,23,22,14,10.80
2012,06,23,22,15,10.80
2012,06,23,22,16,10.80
2012,06,23,22,17,10.80
2012,06,23,22,18,10.80
2012,06,23,22,19,10.80
2012,06,23,22,20,10.80
2012,06,23,22,21,10.80
2012,06,23,22,22,10.80
2012,06,23,22,23,10.80
2012,06,23,22,24,10.80
2012,06,23,22,25,10.80
2012,06,23,22,26,10.80
2012,06,23,22,27,10.80
2012,06,23,22,28,10.80
2012,06,23,22,29,10.80
2012,06,23,22,30,10.80
2012,06,23,22,31,10.80
2012,06,23,22,32,10.80
2012,06,23,22,33,10.80
2012,06,23,22,34,10.80
2012,06,23,22,35,10.80
2012,06,23,22,36,10.80
2012,06,23,22,37,10.90
2012,06,23,22,38,10.90
2012,06,23,22,39,10.90
2012,06,23,22,40,11.00
2012,06,23,22,41,11.00
2012,06,23,22,42,11.10
2012,06,23,22,43,11.10
2012,06,23,22,44,11.10
2012,06,23,22,45,11.10
2012,06,23,22,46,11.10
2012,06,23,22,47,11.10
2012,06,23,22,48,11.00
2012,06,23,22,49,11.10
2012,06,23,22,50,11.10
2012,06,23,22,51,11.10
2012,06,23,22,52,11.10
2012,06,23,22,53,11.10
2012,06,23,22,54,11.10
2012,06,23,22,55,11.10
2012,06,23,22,56,11.10
2012,06,23,22,57,11.10
2012,06,23,22,58,11.00
2012,06,23,22,59,11.00
2012,06,23,23,00,11.00
2012,06,23,23,01,11.00
2012,06,23,23,02,11.00
2012,06,23,23,03,11.00
2012,06,23,23,04,11.00
2012,06,23,23,05,11.00
2012,06,23,23,06,11.00
2012,06,23,23,07,11.00
2012,06,23,23,08,11.00
2012,06,23,23,09,11.00
2012,06,23,23,10,11.00
2012,06,23,23,11,11.00
2012,06,23,23,12,11.00
2012,06,23,23,13,10.90
2012,06,23,23,14,10.90
2012,06,23,23,15,10.90
2012,06,23,23,16,10.90
2012,06,23,23,17,10.90
2012,06,23,23,18,10.90
2012,06,23,23,19,10.90
2012,06,23,23,20,10.90
2012,06,23,23,21,10.90
2012,06,23,23,22,10.90
2012,06,23,23,23,10.90
2012,06,23,23,24,10.90
2012,06,23,23,25,10.80
2012,06,23,23,26,10.80
2012,06,23,23,27,10.80
2012,06,23,23,28,10.80
2012,06,23,23,29,10.80
2012,06,23,23,30,10.80
2012,06,23,23,31,10.80
2012,06,23,23,32,10.80
2012,06,23,23,33,10.80
2012,06,23,23,34,10.80
2012,06,23,23,35,10.70
2012,06,23,23,36,10.70
2012,06,23,23,37,10.70
2012,06,23,23,38,10.70
2012,06,23,23,39,10.70
2012,06,23,23,40,10.70
2012,06,23,23,41,10.70
2012,06,23,23,42,10.60
2012,06,23,23,43,10.60
2012,06,23,23,44,10.60
2012,06,23,23,45,10.60
2012,06,23,23,46,10.60
2012,06,23,23,47,10.50
2012,06,23,23,48,10.50
2012,06,23,23,49,10.50
2012,06,23,23,50,10.40
2012,06,23,23,51,10.40
2012,06,23,23,52,10.40
2012,06,23,23,53,10.40
2012,06,23,23,54,10.30
2012,06,23,23,55,10.30
2012,06,23,23,56,10.30
2012,06,23,23,57,10.30
2012,06,23,23,58,10.20
2012,06,23,23,59,10.20
